Year,Month,Day,Hour,Minute,Value (Times are PST for temperature in C)
2013,04,21,00,00,7.30
2013,04,21,00,01,7.30
2013,04,21,00,02,7.30
2013,04,21,00,03,7.30
2013,04,21,00,04,7.30
2013,04,21,00,05,7.20
2013,04,21,00,06,7.20
2013,04,21,00,07,7.20
2013,04,21,00,08,7.20
2013,04,21,00,09,7.20
2013,04,21,00,10,7.20
2013,04,21,00,11,7.20
2013,04,21,00,12,7.20
2013,04,21,00,13,7.20
2013,04,21,00,14,7.20
2013,04,21,00,15,7.20
2013,04,21,00,16,7.20
2013,04,21,00,17,7.20
2013,04,21,00,18,7.20
2013,04,21,00,19,7.20
2013,04,21,00,20,7.20
2013,04,21,00,21,7.20
2013,04,21,00,22,7.20
2013,04,21,00,23,7.20
2013,04,21,00,24,7.20
2013,04,21,00,25,7.10
2013,04,21,00,26,7.10
2013,04,21,00,27,7.10
2013,04,21,00,28,7.10
2013,04,21,00,29,7.10
2013,04,21,00,30,7.10
2013,04,21,00,31,7.10
2013,04,21,00,32,7.10
2013,04,21,00,33,7.10
2013,04,21,00,34,7.00
2013,04,21,00,35,7.00
2013,04,21,00,36,7.00
2013,04,21,00,37,7.00
2013,04,21,00,38,6.90
2013,04,21,00,39,6.90
2013,04,21,00,40,6.90
2013,04,21,00,41,6.90
2013,04,21,00,42,6.90
2013,04,21,00,43,6.90
2013,04,21,00,44,6.90
2013,04,21,00,45,6.80
2013,04,21,00,46,6.80
2013,04,21,00,47,6.80
2013,04,21,00,48,6.80
2013,04,21,00,49,6.70
2013,04,21,00,50,6.70
2013,04,21,00,51,6.70
2013,04,21,00,52,6.70
2013,04,21,00,53,6.70
2013,04,21,00,54,6.70
2013,04,21,00,55,6.60
2013,04,21,00,56,6.60
2013,04,21,00,57,6.60
2013,04,21,00,58,6.60
2013,04,21,00,59,6.60
2013,04,21,01,00,6.60
2013,04,21,01,01,6.60
2013,04,21,01,02,6.60
2013,04,21,01,03,6.60
2013,04,21,01,04,6.50
2013,04,21,01,05,6.50
2013,04,21,01,06,6.50
2013,04,21,01,07,6.50
2013,04,21,01,08,6.50
2013,04,21,01,09,6.50
2013,04,21,01,10,6.50
2013,04,21,01,11,6.50
2013,04,21,01,12,6.50
2013,04,21,01,13,6.50
2013,04,21,01,14,6.50
2013,04,21,01,15,6.50
2013,04,21,01,16,6.50
2013,04,21,01,17,6.50
2013,04,21,01,18,6.50
2013,04,21,01,19,6.50
2013,04,21,01,20,6.50
2013,04,21,01,21,6.50
2013,04,21,01,22,6.40
2013,04,21,01,23,6.40
2013,04,21,01,24,6.40
2013,04,21,01,25,6.40
2013,04,21,01,26,6.40
2013,04,21,01,27,6.40
2013,04,21,01,28,6.40
2013,04,21,01,29,6.40
2013,04,21,01,30,6.40
2013,04,21,01,31,6.40
2013,04,21,01,32,6.30
2013,04,21,01,33,6.30
2013,04,21,01,34,6.30
2013,04,21,01,35,6.30
2013,04,21,01,36,6.30
2013,04,21,01,37,6.30
2013,04,21,01,38,6.30
2013,04,21,01,39,6.30
2013,04,21,01,40,6.30
2013,04,21,01,41,6.20
2013,04,21,01,42,6.20
2013,04,21,01,43,6.20
2013,04,21,01,44,6.20
2013,04,21,01,45,6.20
2013,04,21,01,46,6.20
2013,04,21,01,47,6.10
2013,04,21,01,48,6.10
2013,04,21,01,49,6.10
2013,04,21,01,50,6.10
2013,04,21,01,51,6.10
2013,04,21,01,52,6.00
2013,04,21,01,53,6.00
2013,04,21,01,54,6.00
2013,04,21,01,55,5.90
2013,04,21,01,56,5.90
2013,04,21,01,57,5.90
2013,04,21,01,58,5.80
2013,04,21,01,59,5.80
2013,04,21,02,00,5.80
2013,04,21,02,01,5.80
2013,04,21,02,02,5.80
2013,04,21,02,03,5.70
2013,04,21,02,04,5.70
2013,04,21,02,05,5.70
2013,04,21,02,06,5.70
2013,04,21,02,07,5.70
2013,04,21,02,08,5.70
2013,04,21,02,09,5.70
2013,04,21,02,10,5.70
2013,04,21,02,11,5.70
2013,04,21,02,12,5.70
2013,04,21,02,13,5.60
2013,04,21,02,14,5.60
2013,04,21,02,15,5.60
2013,04,21,02,16,5.60
2013,04,21,02,17,5.60
2013,04,21,02,18,5.60
2013,04,21,02,19,5.60
2013,04,21,02,20,5.60
2013,04,21,02,21,5.60
2013,04,21,02,22,5.60
2013,04,21,02,23,5.60
2013,04,21,02,24,5.60
2013,04,21,02,25,5.50
2013,04,21,02,26,5.50
2013,04,21,02,27,5.50
2013,04,21,02,28,5.50
2013,04,21,02,29,5.50
2013,04,21,02,30,5.40
2013,04,21,02,31,5.40
2013,04,21,02,32,5.40
2013,04,21,02,33,5.40
2013,04,21,02,34,5.40
2013,04,21,02,35,5.40
2013,04,21,02,36,5.30
2013,04,21,02,37,5.30
2013,04,21,02,38,5.30
2013,04,21,02,39,5.30
2013,04,21,02,40,5.30
2013,04,21,02,41,5.30
2013,04,21,02,42,5.30
2013,04,21,02,43,5.30
2013,04,21,02,44,5.30
2013,04,21,02,45,5.30
2013,04,21,02,46,5.30
2013,04,21,02,47,5.30
2013,04,21,02,48,5.30
2013,04,21,02,49,5.30
2013,04,21,02,50,5.30
2013,04,21,02,51,5.30
2013,04,21,02,52,5.30
2013,04,21,02,53,5.30
2013,04,21,02,54,5.30
2013,04,21,02,55,5.30
2013,04,21,02,56,5.30
2013,04,21,02,57,5.30
2013,04,21,02,58,5.30
2013,04,21,02,59,5.30
2013,04,21,03,00,5.30
2013,04,21,03,01,5.30
2013,04,21,03,02,5.30
2013,04,21,03,03,5.30
2013,04,21,03,04,5.30
2013,04,21,03,05,5.30
2013,04,21,03,06,5.30
2013,04,21,03,07,5.30
2013,04,21,03,08,5.30
2013,04,21,03,09,5.30
2013,04,21,03,10,5.30
2013,04,21,03,11,5.30
2013,04,21,03,12,5.20
2013,04,21,03,13,5.20
2013,04,21,03,14,5.20
2013,04,21,03,15,5.20
2013,04,21,03,16,5.20
2013,04,21,03,17,5.20
2013,04,21,03,18,5.10
2013,04,21,03,19,5.10
2013,04,21,03,20,5.10
2013,04,21,03,21,5.10
2013,04,21,03,22,5.10
2013,04,21,03,23,5.10
2013,04,21,03,24,5.10
2013,04,21,03,25,5.10
2013,04,21,03,26,5.10
2013,04,21,03,27,5.10
2013,04,21,03,28,5.10
2013,04,21,03,29,5.10
2013,04,21,03,30,5.00
2013,04,21,03,31,5.00
2013,04,21,03,32,5.00
2013,04,21,03,33,5.00
2013,04,21,03,34,5.00
2013,04,21,03,35,5.00
2013,04,21,03,36,5.00
2013,04,21,03,37,5.00
2013,04,21,03,38,5.00
2013,04,21,03,39,5.00
2013,04,21,03,40,5.00
2013,04,21,03,41,5.00
2013,04,21,03,42,5.00
2013,04,21,03,43,5.00
2013,04,21,03,44,5.00
2013,04,21,03,45,5.00
2013,04,21,03,46,5.00
2013,04,21,03,47,5.00
2013,04,21,03,48,5.00
2013,04,21,03,49,4.90
2013,04,21,03,50,4.90
2013,04,21,03,51,4.90
2013,04,21,03,52,4.90
2013,04,21,03,53,4.90
2013,04,21,03,54,4.90
2013,04,21,03,55,4.90
2013,04,21,03,56,4.90
2013,04,21,03,57,4.90
2013,04,21,03,58,4.90
2013,04,21,03,59,4.90
2013,04,21,04,00,4.80
2013,04,21,04,01,4.80
2013,04,21,04,02,4.80
2013,04,21,04,03,4.80
2013,04,21,04,04,4.80
2013,04,21,04,05,4.80
2013,04,21,04,06,4.80
2013,04,21,04,07,4.80
2013,04,21,04,08,4.80
2013,04,21,04,09,4.70
2013,04,21,04,10,4.70
2013,04,21,04,11,4.70
2013,04,21,04,12,4.70
2013,04,21,04,13,4.70
2013,04,21,04,14,4.70
2013,04,21,04,15,4.70
2013,04,21,04,16,4.70
2013,04,21,04,17,4.70
2013,04,21,04,18,4.70
2013,04,21,04,19,4.70
2013,04,21,04,20,4.70
2013,04,21,04,21,4.70
2013,04,21,04,22,4.60
2013,04,21,04,23,4.60
2013,04,21,04,24,4.60
2013,04,21,04,25,4.60
2013,04,21,04,26,4.60
2013,04,21,04,27,4.60
2013,04,21,04,28,4.60
2013,04,21,04,29,4.60
2013,04,21,04,30,4.60
2013,04,21,04,31,4.60
2013,04,21,04,32,4.60
2013,04,21,04,33,4.60
2013,04,21,04,34,4.60
2013,04,21,04,35,4.60
2013,04,21,04,36,4.60
2013,04,21,04,37,4.60
2013,04,21,04,38,4.60
2013,04,21,04,39,4.60
2013,04,21,04,40,4.60
2013,04,21,04,41,4.60
2013,04,21,04,42,4.60
2013,04,21,04,43,4.60
2013,04,21,04,44,4.60
2013,04,21,04,45,4.60
2013,04,21,04,46,4.60
2013,04,21,04,47,4.60
2013,04,21,04,48,4.60
2013,04,21,04,49,4.60
2013,04,21,04,50,4.60
2013,04,21,04,51,4.60
2013,04,21,04,52,4.60
2013,04,21,04,53,4.60
2013,04,21,04,54,4.60
2013,04,21,04,55,4.60
2013,04,21,04,56,4.60
2013,04,21,04,57,4.60
2013,04,21,04,58,4.60
2013,04,21,04,59,4.60
2013,04,21,05,00,4.60
2013,04,21,05,01,4.60
2013,04,21,05,02,4.50
2013,04,21,05,03,4.60
2013,04,21,05,04,4.60
2013,04,21,05,05,4.60
2013,04,21,05,06,4.60
2013,04,21,05,07,4.60
2013,04,21,05,08,4.60
2013,04,21,05,09,4.60
2013,04,21,05,10,4.60
2013,04,21,05,11,4.60
2013,04,21,05,12,4.60
2013,04,21,05,13,4.60
2013,04,21,05,14,4.60
2013,04,21,05,15,4.60
2013,04,21,05,16,4.60
2013,04,21,05,17,4.60
2013,04,21,05,18,4.60
2013,04,21,05,19,4.60
2013,04,21,05,20,4.60
2013,04,21,05,21,4.60
2013,04,21,05,22,4.60
2013,04,21,05,23,4.60
2013,04,21,05,24,4.60
2013,04,21,05,25,4.60
2013,04,21,05,26,4.60
2013,04,21,05,27,4.60
2013,04,21,05,28,4.60
2013,04,21,05,29,4.60
2013,04,21,05,30,4.60
2013,04,21,05,31,4.60
2013,04,21,05,32,4.60
2013,04,21,05,33,4.60
2013,04,21,05,34,4.60
2013,04,21,05,35,4.50
2013,04,21,05,36,4.50
2013,04,21,05,37,4.50
2013,04,21,05,38,4.50
2013,04,21,05,39,4.50
2013,04,21,05,40,4.50
2013,04,21,05,41,4.50
2013,04,21,05,42,4.50
2013,04,21,05,43,4.50
2013,04,21,05,44,4.40
2013,04,21,05,45,4.40
2013,04,21,05,46,4.40
2013,04,21,05,47,4.40
2013,04,21,05,48,4.40
2013,04,21,05,49,4.40
2013,04,21,05,50,4.40
2013,04,21,05,51,4.40
2013,04,21,05,52,4.40
2013,04,21,05,53,4.40
2013,04,21,05,54,4.40
2013,04,21,05,55,4.40
2013,04,21,05,56,4.40
2013,04,21,05,57,4.40
2013,04,21,05,58,4.40
2013,04,21,05,59,4.40
2013,04,21,06,00,4.40
2013,04,21,06,01,4.40
2013,04,21,06,02,4.40
2013,04,21,06,03,4.40
2013,04,21,06,04,4.40
2013,04,21,06,05,4.40
2013,04,21,06,06,4.40
2013,04,21,06,07,4.40
2013,04,21,06,08,4.40
2013,04,21,06,09,4.40
2013,04,21,06,10,4.40
2013,04,21,06,11,4.40
2013,04,21,06,12,4.40
2013,04,21,06,13,4.40
2013,04,21,06,14,4.40
2013,04,21,06,15,4.40
2013,04,21,06,16,4.40
2013,04,21,06,17,4.40
2013,04,21,06,18,4.40
2013,04,21,06,19,4.40
2013,04,21,06,20,4.40
2013,04,21,06,21,4.40
2013,04,21,06,22,4.40
2013,04,21,06,23,4.40
2013,04,21,06,24,4.40
2013,04,21,06,25,4.40
2013,04,21,06,26,4.40
2013,04,21,06,27,4.40
2013,04,21,06,28,4.40
2013,04,21,06,29,4.40
2013,04,21,06,30,4.40
2013,04,21,06,31,4.40
2013,04,21,06,32,4.40
2013,04,21,06,33,4.40
2013,04,21,06,34,4.40
2013,04,21,06,35,4.40
2013,04,21,06,36,4.40
2013,04,21,06,37,4.40
2013,04,21,06,38,4.40
2013,04,21,06,39,4.40
2013,04,21,06,40,4.40
2013,04,21,06,41,4.40
2013,04,21,06,42,4.40
2013,04,21,06,43,4.40
2013,04,21,06,44,4.40
2013,04,21,06,45,4.40
2013,04,21,06,46,4.40
2013,04,21,06,47,4.40
2013,04,21,06,48,4.40
2013,04,21,06,49,4.40
2013,04,21,06,50,4.40
2013,04,21,06,51,4.40
2013,04,21,06,52,4.40
2013,04,21,06,53,4.40
2013,04,21,06,54,4.40
2013,04,21,06,55,4.40
2013,04,21,06,56,4.40
2013,04,21,06,57,4.40
2013,04,21,06,58,4.40
2013,04,21,06,59,4.40
2013,04,21,07,00,4.40
2013,04,21,07,01,4.40
2013,04,21,07,02,4.40
2013,04,21,07,03,4.30
2013,04,21,07,04,4.40
2013,04,21,07,05,4.40
2013,04,21,07,06,4.40
2013,04,21,07,07,4.40
2013,04,21,07,08,4.40
2013,04,21,07,09,4.40
2013,04,21,07,10,4.40
2013,04,21,07,11,4.50
2013,04,21,07,12,4.50
2013,04,21,07,13,4.50
2013,04,21,07,14,4.50
2013,04,21,07,15,4.50
2013,04,21,07,16,4.50
2013,04,21,07,17,4.60
2013,04,21,07,18,4.60
2013,04,21,07,19,4.60
2013,04,21,07,20,4.60
2013,04,21,07,21,4.60
2013,04,21,07,22,4.60
2013,04,21,07,23,4.60
2013,04,21,07,24,4.60
2013,04,21,07,25,4.60
2013,04,21,07,26,4.60
2013,04,21,07,27,4.70
2013,04,21,07,28,4.70
2013,04,21,07,29,4.70
2013,04,21,07,30,4.70
2013,04,21,07,31,4.70
2013,04,21,07,32,4.70
2013,04,21,07,33,4.70
2013,04,21,07,34,4.70
2013,04,21,07,35,4.80
2013,04,21,07,36,4.80
2013,04,21,07,37,4.80
2013,04,21,07,38,4.80
2013,04,21,07,39,4.80
2013,04,21,07,40,4.80
2013,04,21,07,41,4.80
2013,04,21,07,42,4.80
2013,04,21,07,43,4.80
2013,04,21,07,44,4.80
2013,04,21,07,45,4.90
2013,04,21,07,46,4.90
2013,04,21,07,47,4.90
2013,04,21,07,48,4.90
2013,04,21,07,49,4.90
2013,04,21,07,50,4.90
2013,04,21,07,51,4.90
2013,04,21,07,52,5.00
2013,04,21,07,53,4.90
2013,04,21,07,54,4.90
2013,04,21,07,55,4.90
2013,04,21,07,56,4.90
2013,04,21,07,57,5.00
2013,04,21,07,58,5.00
2013,04,21,07,59,5.00
2013,04,21,08,00,5.00
2013,04,21,08,01,5.00
2013,04,21,08,02,5.10
2013,04,21,08,03,5.10
2013,04,21,08,04,5.10
2013,04,21,08,05,5.10
2013,04,21,08,06,5.10
2013,04,21,08,07,5.10
2013,04,21,08,08,5.10
2013,04,21,08,09,5.10
2013,04,21,08,10,5.10
2013,04,21,08,11,5.10
2013,04,21,08,12,5.20
2013,04,21,08,13,5.20
2013,04,21,08,14,5.20
2013,04,21,08,15,5.20
2013,04,21,08,16,5.20
2013,04,21,08,17,5.20
2013,04,21,08,18,5.30
2013,04,21,08,19,5.30
2013,04,21,08,20,5.30
2013,04,21,08,21,5.40
2013,04,21,08,22,5.40
2013,04,21,08,23,5.40
2013,04,21,08,24,5.40
2013,04,21,08,25,5.50
2013,04,21,08,26,5.50
2013,04,21,08,27,5.50
2013,04,21,08,28,5.60
2013,04,21,08,29,5.60
2013,04,21,08,30,5.60
2013,04,21,08,31,5.60
2013,04,21,08,32,5.60
2013,04,21,08,33,5.60
2013,04,21,08,34,5.60
2013,04,21,08,35,5.70
2013,04,21,08,36,5.70
2013,04,21,08,37,5.70
2013,04,21,08,38,5.70
2013,04,21,08,39,5.80
2013,04,21,08,40,5.80
2013,04,21,08,41,5.80
2013,04,21,08,42,5.80
2013,04,21,08,43,5.80
2013,04,21,08,44,5.90
2013,04,21,08,45,5.90
2013,04,21,08,46,5.90
2013,04,21,08,47,6.00
2013,04,21,08,48,6.00
2013,04,21,08,49,6.00
2013,04,21,08,50,6.10
2013,04,21,08,51,6.10
2013,04,21,08,52,6.10
2013,04,21,08,53,6.10
2013,04,21,08,54,6.10
2013,04,21,08,55,6.10
2013,04,21,08,56,6.10
2013,04,21,08,57,6.10
2013,04,21,08,58,6.10
2013,04,21,08,59,6.10
2013,04,21,09,00,6.10
2013,04,21,09,01,6.10
2013,04,21,09,02,6.10
2013,04,21,09,03,6.10
2013,04,21,09,04,6.10
2013,04,21,09,05,6.10
2013,04,21,09,06,6.10
2013,04,21,09,07,6.10
2013,04,21,09,08,6.10
2013,04,21,09,09,6.10
2013,04,21,09,10,6.10
2013,04,21,09,11,6.00
2013,04,21,09,12,6.00
2013,04,21,09,13,6.00
2013,04,21,09,14,6.00
2013,04,21,09,15,6.00
2013,04,21,09,16,6.00
2013,04,21,09,17,6.00
2013,04,21,09,18,6.00
2013,04,21,09,19,6.00
2013,04,21,09,20,6.10
2013,04,21,09,21,6.10
2013,04,21,09,22,6.10
2013,04,21,09,23,6.10
2013,04,21,09,24,6.10
2013,04,21,09,25,6.20
2013,04,21,09,26,6.20
2013,04,21,09,27,6.20
2013,04,21,09,28,6.30
2013,04,21,09,29,6.30
2013,04,21,09,30,6.30
2013,04,21,09,31,6.30
2013,04,21,09,32,6.30
2013,04,21,09,33,6.30
2013,04,21,09,34,6.30
2013,04,21,09,35,6.40
2013,04,21,09,36,6.40
2013,04,21,09,37,6.40
2013,04,21,09,38,6.40
2013,04,21,09,39,6.40
2013,04,21,09,40,6.50
2013,04,21,09,41,6.50
2013,04,21,09,42,6.60
2013,04,21,09,43,6.60
2013,04,21,09,44,6.60
2013,04,21,09,45,6.70
2013,04,21,09,46,6.70
2013,04,21,09,47,6.70
2013,04,21,09,48,6.70
2013,04,21,09,49,6.70
2013,04,21,09,50,6.80
2013,04,21,09,51,6.80
2013,04,21,09,52,6.80
2013,04,21,09,53,6.90
2013,04,21,09,54,6.90
2013,04,21,09,55,6.90
2013,04,21,09,56,6.90
2013,04,21,09,57,6.90
2013,04,21,09,58,6.90
2013,04,21,09,59,7.00
2013,04,21,10,00,7.00
2013,04,21,10,01,7.00
2013,04,21,10,02,7.00
2013,04,21,10,03,7.00
2013,04,21,10,04,6.90
2013,04,21,10,05,6.90
2013,04,21,10,06,6.90
2013,04,21,10,07,6.90
2013,04,21,10,08,6.90
2013,04,21,10,09,6.90
2013,04,21,10,10,6.90
2013,04,21,10,11,6.90
2013,04,21,10,12,6.90
2013,04,21,10,13,6.90
2013,04,21,10,14,6.80
2013,04,21,10,15,6.80
2013,04,21,10,16,6.80
2013,04,21,10,17,6.70
2013,04,21,10,18,6.70
2013,04,21,10,19,6.70
2013,04,21,10,20,6.60
2013,04,21,10,21,6.60
2013,04,21,10,22,6.60
2013,04,21,10,23,6.70
2013,04,21,10,24,6.70
2013,04,21,10,25,6.80
2013,04,21,10,26,6.80
2013,04,21,10,27,6.90
2013,04,21,10,28,6.90
2013,04,21,10,29,7.00
2013,04,21,10,30,7.10
2013,04,21,10,31,7.20
2013,04,21,10,32,7.30
2013,04,21,10,33,7.30
2013,04,21,10,34,7.40
2013,04,21,10,35,7.40
2013,04,21,10,36,7.50
2013,04,21,10,37,7.60
2013,04,21,10,38,7.60
2013,04,21,10,39,7.70
2013,04,21,10,40,7.70
2013,04,21,10,41,7.80
2013,04,21,10,42,7.80
2013,04,21,10,43,7.80
2013,04,21,10,44,7.80
2013,04,21,10,45,7.80
2013,04,21,10,46,7.70
2013,04,21,10,47,7.70
2013,04,21,10,48,7.70
2013,04,21,10,49,7.70
2013,04,21,10,50,7.70
2013,04,21,10,51,7.70
2013,04,21,10,52,7.80
2013,04,21,10,53,7.80
2013,04,21,10,54,7.80
2013,04,21,10,55,7.80
2013,04,21,10,56,7.90
2013,04,21,10,57,7.90
2013,04,21,10,58,8.00
2013,04,21,10,59,8.00
2013,04,21,11,00,8.10
2013,04,21,11,01,8.10
2013,04,21,11,02,8.10
2013,04,21,11,03,8.20
2013,04,21,11,04,8.30
2013,04,21,11,05,8.30
2013,04,21,11,06,8.40
2013,04,21,11,07,8.40
2013,04,21,11,08,8.50
2013,04,21,11,09,8.60
2013,04,21,11,10,8.70
2013,04,21,11,11,8.80
2013,04,21,11,12,8.80
2013,04,21,11,13,8.90
2013,04,21,11,14,9.00
2013,04,21,11,15,9.00
2013,04,21,11,16,9.10
2013,04,21,11,17,9.10
2013,04,21,11,18,9.10
2013,04,21,11,19,9.10
2013,04,21,11,20,9.10
2013,04,21,11,21,9.20
2013,04,21,11,22,9.20
2013,04,21,11,23,9.30
2013,04,21,11,24,9.30
2013,04,21,11,25,9.40
2013,04,21,11,26,9.50
2013,04,21,11,27,9.60
2013,04,21,11,28,9.60
2013,04,21,11,29,9.70
2013,04,21,11,30,9.70
2013,04,21,11,31,9.70
2013,04,21,11,32,9.80
2013,04,21,11,33,9.80
2013,04,21,11,34,9.80
2013,04,21,11,35,9.90
2013,04,21,11,36,9.90
2013,04,21,11,37,10.00
2013,04,21,11,38,10.10
2013,04,21,11,39,10.10
2013,04,21,11,40,10.10
2013,04,21,11,41,10.20
2013,04,21,11,42,10.20
2013,04,21,11,43,10.20
2013,04,21,11,44,10.20
2013,04,21,11,45,10.20
2013,04,21,11,46,10.20
2013,04,21,11,47,10.20
2013,04,21,11,48,10.20
2013,04,21,11,49,10.20
2013,04,21,11,50,10.30
2013,04,21,11,51,10.30
2013,04,21,11,52,10.40
2013,04,21,11,53,10.50
2013,04,21,11,54,10.50
2013,04,21,11,55,10.50
2013,04,21,11,56,10.40
2013,04,21,11,57,10.50
2013,04,21,11,58,10.50
2013,04,21,11,59,10.70
2013,04,21,12,00,10.80
2013,04,21,12,01,10.90
2013,04,21,12,02,11.00
2013,04,21,12,03,10.90
2013,04,21,12,04,10.80
2013,04,21,12,05,10.70
2013,04,21,12,06,10.70
2013,04,21,12,07,10.60
2013,04,21,12,08,10.60
2013,04,21,12,09,10.60
2013,04,21,12,10,10.60
2013,04,21,12,11,10.60
2013,04,21,12,12,10.60
2013,04,21,12,13,10.50
2013,04,21,12,14,10.50
2013,04,21,12,15,10.50
2013,04,21,12,16,10.40
2013,04,21,12,17,10.40
2013,04,21,12,18,10.30
2013,04,21,12,19,10.40
2013,04,21,12,20,10.40
2013,04,21,12,21,10.50
2013,04,21,12,22,10.60
2013,04,21,12,23,10.70
2013,04,21,12,24,10.80
2013,04,21,12,25,10.80
2013,04,21,12,26,10.90
2013,04,21,12,27,10.80
2013,04,21,12,28,10.90
2013,04,21,12,29,10.90
2013,04,21,12,30,11.00
2013,04,21,12,31,11.00
2013,04,21,12,32,11.10
2013,04,21,12,33,11.20
2013,04,21,12,34,11.30
2013,04,21,12,35,11.50
2013,04,21,12,36,11.50
2013,04,21,12,37,11.60
2013,04,21,12,38,11.50
2013,04,21,12,39,11.30
2013,04,21,12,40,11.20
2013,04,21,12,41,11.00
2013,04,21,12,42,10.90
2013,04,21,12,43,10.90
2013,04,21,12,44,10.80
2013,04,21,12,45,10.70
2013,04,21,12,46,10.60
2013,04,21,12,47,10.50
2013,04,21,12,48,10.30
2013,04,21,12,49,10.20
2013,04,21,12,50,10.20
2013,04,21,12,51,10.10
2013,04,21,12,52,10.10
2013,04,21,12,53,10.10
2013,04,21,12,54,10.10
2013,04,21,12,55,10.10
2013,04,21,12,56,10.10
2013,04,21,12,57,10.10
2013,04,21,12,58,10.10
2013,04,21,12,59,10.20
2013,04,21,13,00,10.20
2013,04,21,13,01,10.20
2013,04,21,13,02,10.20
2013,04,21,13,03,10.20
2013,04,21,13,04,10.20
2013,04,21,13,05,10.30
2013,04,21,13,06,10.30
2013,04,21,13,07,10.30
2013,04,21,13,08,10.30
2013,04,21,13,09,10.30
2013,04,21,13,10,10.30
2013,04,21,13,11,10.30
2013,04,21,13,12,10.40
2013,04,21,13,13,10.40
2013,04,21,13,14,10.40
2013,04,21,13,15,10.40
2013,04,21,13,16,10.40
2013,04,21,13,17,10.40
2013,04,21,13,18,10.40
2013,04,21,13,19,10.50
2013,04,21,13,20,10.50
2013,04,21,13,21,10.60
2013,04,21,13,22,10.60
2013,04,21,13,23,10.70
2013,04,21,13,24,10.70
2013,04,21,13,25,10.80
2013,04,21,13,26,10.80
2013,04,21,13,27,10.80
2013,04,21,13,28,10.80
2013,04,21,13,29,10.90
2013,04,21,13,30,10.90
2013,04,21,13,31,10.80
2013,04,21,13,32,10.90
2013,04,21,13,33,10.90
2013,04,21,13,34,10.90
2013,04,21,13,35,10.90
2013,04,21,13,36,10.90
2013,04,21,13,37,11.00
2013,04,21,13,38,11.00
2013,04,21,13,39,11.00
2013,04,21,13,40,11.10
2013,04,21,13,41,11.10
2013,04,21,13,42,11.20
2013,04,21,13,43,11.30
2013,04,21,13,44,11.30
2013,04,21,13,45,11.40
2013,04,21,13,46,11.40
2013,04,21,13,47,11.50
2013,04,21,13,48,11.60
2013,04,21,13,49,11.70
2013,04,21,13,50,11.80
2013,04,21,13,51,12.00
2013,04,21,13,52,12.20
2013,04,21,13,53,12.30
2013,04,21,13,54,12.60
2013,04,21,13,55,12.80
2013,04,21,13,56,12.90
2013,04,21,13,57,12.90
2013,04,21,13,58,13.00
2013,04,21,13,59,13.00
2013,04,21,14,00,13.00
2013,04,21,14,01,13.10
2013,04,21,14,02,13.00
2013,04,21,14,03,13.00
2013,04,21,14,04,12.90
2013,04,21,14,05,12.80
2013,04,21,14,06,12.80
2013,04,21,14,07,12.80
2013,04,21,14,08,12.80
2013,04,21,14,09,12.80
2013,04,21,14,10,12.90
2013,04,21,14,11,12.90
2013,04,21,14,12,13.00
2013,04,21,14,13,13.10
2013,04,21,14,14,13.10
2013,04,21,14,15,13.10
2013,04,21,14,16,13.10
2013,04,21,14,17,13.20
2013,04,21,14,18,13.20
2013,04,21,14,19,13.20
2013,04,21,14,20,13.30
2013,04,21,14,21,13.30
2013,04,21,14,22,13.30
2013,04,21,14,23,13.30
2013,04,21,14,24,13.30
2013,04,21,14,25,13.30
2013,04,21,14,26,13.20
2013,04,21,14,27,13.20
2013,04,21,14,28,13.20
2013,04,21,14,29,13.10
2013,04,21,14,30,13.10
2013,04,21,14,31,13.00
2013,04,21,14,32,13.00
2013,04,21,14,33,13.00
2013,04,21,14,34,12.90
2013,04,21,14,35,12.90
2013,04,21,14,36,13.00
2013,04,21,14,37,13.00
2013,04,21,14,38,13.10
2013,04,21,14,39,13.10
2013,04,21,14,40,13.10
2013,04,21,14,41,13.10
2013,04,21,14,42,13.10
2013,04,21,14,43,13.20
2013,04,21,14,44,13.20
2013,04,21,14,45,13.10
2013,04,21,14,46,13.20
2013,04,21,14,47,13.20
2013,04,21,14,48,13.30
2013,04,21,14,49,13.40
2013,04,21,14,50,13.50
2013,04,21,14,51,13.60
2013,04,21,14,52,13.70
2013,04,21,14,53,13.70
2013,04,21,14,54,13.60
2013,04,21,14,55,13.50
2013,04,21,14,56,13.40
2013,04,21,14,57,13.30
2013,04,21,14,58,13.20
2013,04,21,14,59,13.10
2013,04,21,15,00,13.10
2013,04,21,15,01,13.00
2013,04,21,15,02,12.90
2013,04,21,15,03,12.80
2013,04,21,15,04,12.80
2013,04,21,15,05,12.80
2013,04,21,15,06,12.80
2013,04,21,15,07,12.80
2013,04,21,15,08,12.90
2013,04,21,15,09,12.90
2013,04,21,15,10,13.00
2013,04,21,15,11,13.10
2013,04,21,15,12,13.20
2013,04,21,15,13,13.40
2013,04,21,15,14,13.60
2013,04,21,15,15,13.90
2013,04,21,15,16,14.10
2013,04,21,15,17,14.20
2013,04,21,15,18,14.30
2013,04,21,15,19,14.30
2013,04,21,15,20,14.30
2013,04,21,15,21,14.20
2013,04,21,15,22,14.10
2013,04,21,15,23,14.10
2013,04,21,15,24,14.00
2013,04,21,15,25,14.00
2013,04,21,15,26,13.90
2013,04,21,15,27,13.90
2013,04,21,15,28,13.90
2013,04,21,15,29,13.90
2013,04,21,15,30,13.90
2013,04,21,15,31,13.90
2013,04,21,15,32,13.90
2013,04,21,15,33,13.90
2013,04,21,15,34,13.90
2013,04,21,15,35,13.90
2013,04,21,15,36,13.90
2013,04,21,15,37,13.90
2013,04,21,15,38,13.80
2013,04,21,15,39,13.80
2013,04,21,15,40,13.80
2013,04,21,15,41,13.80
2013,04,21,15,42,13.80
2013,04,21,15,43,13.70
2013,04,21,15,44,13.80
2013,04,21,15,45,13.80
2013,04,21,15,46,13.80
2013,04,21,15,47,14.00
2013,04,21,15,48,14.00
2013,04,21,15,49,14.00
2013,04,21,15,50,13.90
2013,04,21,15,51,13.90
2013,04,21,15,52,13.90
2013,04,21,15,53,13.80
2013,04,21,15,54,13.80
2013,04,21,15,55,13.80
2013,04,21,15,56,13.70
2013,04,21,15,57,13.60
2013,04,21,15,58,13.60
2013,04,21,15,59,13.70
2013,04,21,16,00,13.70
2013,04,21,16,01,13.70
2013,04,21,16,02,13.70
2013,04,21,16,03,13.80
2013,04,21,16,04,13.80
2013,04,21,16,05,13.90
2013,04,21,16,06,13.90
2013,04,21,16,07,13.90
2013,04,21,16,08,13.80
2013,04,21,16,09,13.70
2013,04,21,16,10,13.70
2013,04,21,16,11,13.60
2013,04,21,16,12,13.50
2013,04,21,16,13,13.40
2013,04,21,16,14,13.40
2013,04,21,16,15,13.40
2013,04,21,16,16,13.50
2013,04,21,16,17,13.60
2013,04,21,16,18,13.60
2013,04,21,16,19,13.60
2013,04,21,16,20,13.60
2013,04,21,16,21,13.60
2013,04,21,16,22,13.70
2013,04,21,16,23,13.70
2013,04,21,16,24,13.80
2013,04,21,16,25,13.80
2013,04,21,16,26,13.80
2013,04,21,16,27,13.90
2013,04,21,16,28,14.00
2013,04,21,16,29,14.10
2013,04,21,16,30,14.10
2013,04,21,16,31,14.20
2013,04,21,16,32,14.20
2013,04,21,16,33,14.30
2013,04,21,16,34,14.30
2013,04,21,16,35,14.40
2013,04,21,16,36,14.50
2013,04,21,16,37,14.60
2013,04,21,16,38,14.70
2013,04,21,16,39,14.80
2013,04,21,16,40,14.90
2013,04,21,16,41,14.90
2013,04,21,16,42,14.90
2013,04,21,16,43,14.90
2013,04,21,16,44,14.80
2013,04,21,16,45,14.70
2013,04,21,16,46,14.60
2013,04,21,16,47,14.50
2013,04,21,16,48,14.40
2013,04,21,16,49,14.40
2013,04,21,16,50,14.40
2013,04,21,16,51,14.50
2013,04,21,16,52,14.60
2013,04,21,16,53,14.60
2013,04,21,16,54,14.50
2013,04,21,16,55,14.50
2013,04,21,16,56,14.60
2013,04,21,16,57,14.60
2013,04,21,16,58,14.70
2013,04,21,16,59,14.70
2013,04,21,17,00,14.80
2013,04,21,17,01,14.80
2013,04,21,17,02,14.80
2013,04,21,17,03,14.90
2013,04,21,17,04,14.90
2013,04,21,17,05,15.00
2013,04,21,17,06,15.00
2013,04,21,17,07,15.00
2013,04,21,17,08,15.10
2013,04,21,17,09,15.20
2013,04,21,17,10,15.20
2013,04,21,17,11,15.20
2013,04,21,17,12,15.20
2013,04,21,17,13,15.20
2013,04,21,17,14,15.10
2013,04,21,17,15,15.00
2013,04,21,17,16,15.00
2013,04,21,17,17,15.00
2013,04,21,17,18,14.90
2013,04,21,17,19,14.90
2013,04,21,17,20,14.90
2013,04,21,17,21,14.90
2013,04,21,17,22,14.90
2013,04,21,17,23,14.90
2013,04,21,17,24,14.80
2013,04,21,17,25,14.80
2013,04,21,17,26,14.80
2013,04,21,17,27,14.80
2013,04,21,17,28,14.80
2013,04,21,17,29,14.90
2013,04,21,17,30,14.90
2013,04,21,17,31,14.90
2013,04,21,17,32,14.90
2013,04,21,17,33,14.90
2013,04,21,17,34,15.00
2013,04,21,17,35,14.90
2013,04,21,17,36,14.90
2013,04,21,17,37,15.00
2013,04,21,17,38,15.00
2013,04,21,17,39,15.00
2013,04,21,17,40,14.90
2013,04,21,17,41,14.90
2013,04,21,17,42,14.90
2013,04,21,17,43,15.00
2013,04,21,17,44,15.10
2013,04,21,17,45,15.20
2013,04,21,17,46,15.40
2013,04,21,17,47,15.50
2013,04,21,17,48,15.60
2013,04,21,17,49,15.60